STARLINK-36894

Last updated on Fri Mar 27 2026 00:02:06 GMT+0000 (Coordinated Universal Time)

1 67972U 26038M 26085.50002314 .00061534 00000+0 18949-2 0 9997 2 67972 97.2851 96.3799 0001339 104.0993 345.5565 15.33410746 5901
UTC large
Height (km)
Speed (km/s)
/
Latitude / Longitude
Inclination (degrees)
Orbital Period (minutes)
Azimuth
Elevation
Range (km)
Doppler Factor

Next 0 passes for location: London (51.5072 / 0.1276)

Sorry there are no passes over London.